RH
22 22 21 21 21 24 31 61 98 102 99 102 100 101 100 101 100 96 100 102 101 100 98 89 77 76 89 100 103 104 105 102 99 97 97 98 99 99 93 86 83 81 81 88 95 95 89 85 85 87 88 89 89 89 90 87 85 88 89 87 82 79 79 80 84 89 86 80 77 78 83 88 88 90 94 97 98 101 102 102 102 102 103 102 102 101 100 101
21 22 21 21 20 23 25 41 85 104 99 101 100 100 101 100 102 100 101 105 102 103 107 104 93 78 74 81 89 93 96 98 96 96 97 98 99 98 95 88 81 77 74 75 80 85 86 83 80 79 77 77 79 82 85 86 86 85 83 81 78 76 75 74 74 76 75 71 68 69 77 86 87 86 87 90 94 97 99 100 99 98 100 101 103 104 103 103
21 22 21 21 20 23 27 28 63 101 101 99 101 99 101 100 100 101 100 99 94 91 90 89 89 83 73 69 74 79 79 77 76 79 85 94 104 106 104 103 101 100 99 95 91 87 84 82 80 78 75 72 72 73 74 79 89 92 87 79 75 74 73 73 74 74 73 71 70 68 70 75 81 86 88 91 95 100 103 103 103 102 99 98 98 99 100 100
21 22 21 22 23 22 29 28 43 89 105 98 102 100 100 101 99 101 100 97 93 90 88 85 81 79 77 76 83 92 91 86 75 64 60 67 83 92 93 93 94 96 98 101 102 99 93 86 79 71 65 62 61 62 62 66 77 87 85 75 68 66 65 65 67 68 70 72 75 77 76 75 75 78 82 84 85 89 92 93 95 98 98 97 96 96 97 98
21 22 22 22 26 24 29 32 34 72 104 100 100 101 99 101 99 99 101 100 97 96 98 98 96 94 93 92 97 102 103 104 100 89 77 67 67 72 79 85 86 83 80 80 80 81 82 80 76 71 64 61 59 57 56 57 61 68 70 65 61 59 57 57 57 59 61 63 66 70 75 78 77 77 76 74 71 70 69 69 70 73 76 79 82 85 87 90
24 23 25 25 28 28 29 35 33 54 94 104 99 101 100 100 101 100 100 100 97 96 95 95 98 97 97 99 99 97 94 95 97 99 98 94 90 88 93 99 102 102 98 93 90 86 83 80 76 74 72 72 72 67 61 56 52 54 56 55 55 53 52 52 53 55 56 56 57 58 60 64 69 72 71 66 60 56 55 54 54 54 54 56 58 61 63 65
29 27 29 30 31 33 32 37 37 43 79 104 101 100 101 99 101 100 99 99 99 100 98 95 94 90 92 96 92 84 78 75 76 78 81 86 90 92 94 96 97 99 96 95 98 101 99 93 86 81 77 72 71 69 64 59 51 47 46 47 47 46 46 46 48 50 53 54 54 55 55 56 57 58 59 57 53 51 51 51 51 50 50 49 49 49 50 51
36 35 33 34 35 37 37 39 42 43 65 96 104 100 99 99 100 100 100 100 100 101 101 100 99 97 98 99 96 91 87 84 84 84 85 86 88 88 87 84 82 80 78 80 86 92 96 95 94 94 91 83 77 73 69 63 57 51 46 44 43 43 43 44 44 44 46 47 49 52 53 55 55 55 54 53 52 52 51 52 53 53 54 53 52 52 52 52
43 43 41 41 40 42 43 43 46 46 53 79 100 104 101 100 101 101 100 101 101 100 101 101 100 100 100 100 101 101 100 98 98 98 99 98 97 98 97 95 93 90 90 92 93 95 96 97 98 100 100 96 92 90 86 80 75 70 67 65 63 64 66 68 67 64 60 57 56 57 57 57 56 57 56 55 54 53 52 52 52 53 54 54 54 55 55 55
50 51 49 48 47 46 48 47 47 48 49 57 78 98 105 102 100 102 101 100 100 99 101 100 99 100 99 99 99 97 99 101 99 99 100 100 100 99 101 99 97 98 99 99 98 99 99 100 100 100 101 100 99 99 98 96 95 93 93 94 92 92 93 94 95 94 92 90 89 86 84 82 79 76 72 68 65 62 59 56 55 53 51 51 49 49 49 49
56 55 52 51 50 48 47 47 47 48 50 49 55 73 94 104 102 102 102 101 101 100 101 100 100 101 99 99 99 95 96 99 99 99 98 98 100 100 101 100 96 95 97 97 95 96 98 99 99 100 101 100 100 101 101 101 102 100 100 101 101 101 101 100 101 103 104 104 104 103 102 100 97 93 88 85 83 83 81 77 75 71 66 63 59 58 57 56
61 58 56 54 51 49 47 47 47 48 49 50 49 52 67 87 100 103 102 101 100 100 101 101 100 101 100 101 102 99 97 98 99 100 99 97 97 99 99 100 99 98 98 98 97 96 98 99 100 101 101 100 100 100 100 100 101 100 99 101 102 102 102 103 103 104 102 98 95 93 95 95 94 92 90 92 93 95 95 91 88 83 79 77 75 74 72 70
67 65 62 58 55 53 52 50 49 49 49 49 50 49 48 57 73 88 97 101 103 102 101 101 100 100 100 100 100 101 100 99 100 100 101 100 99 100 101 101 101 100 100 101 101 100 100 101 101 101 101 100 100 100 100 100 101 100 99 100 100 99 98 97 96 94 91 89 86 85 89 91 90 87 87 91 94 97 98 97 96 95 93 92 92 91 89 88
72 69 62 57 57 57 56 56 55 54 53 53 52 52 50 48 49 57 68 79 88 93 97 99 101 101 101 102 101 102 102 101 101 101 100 100 100 100 100 100 100 100 100 100 100 101 101 101 101 101 101 100 99 98 96 95 93 90 88 87 85 84 83 83 83 85 86 87 87 89 93 94 93 91 89 88 89 91 92 93 95 97 96 97 98 98 98 98
75 69 61 57 56 56 56 56 56 56 56 56 55 54 53 52 50 49 50 53 58 63 69 74 79 82 85 89 92 95 98 99 100 101 101 101 102 102 101 101 102 102 101 101 101 100 99 98 98 98 97 94 92 89 86 84 81 78 77 75 74 73 73 74 74 75 75 76 76 77 79 80 81 82 82 82 82 83 84 84 85 87 89 90 92 92 94 96
79 73 65 62 60 59 58 58 58 57 56 55 54 53 53 53 54 54 53 52 51 50 51 52 55 57 60 63 65 68 72 76 79 82 84 85 86 87 87 87 88 89 89 89 89 88 87 85 84 82 80 77 74 72 68 66 64 61 59 57 55 53 52 51 50 50 49 49 48 48 48 49 50 52 53 54 56 58 59 60 60 62 64 65 67 68 69 71
82 76 71 69 68 68 68 67 64 61 58 56 55 54 54 54 53 53 54 54 54 54 54 54 54 54 55 55 55 55 55 56 57 58 60 61 62 62 62 61 61 61 61 61 60 60 59 57 55 53 52 50 49 47 45 44 42 42 40 40 40 39 39 39 38 38 38 38 37 37 37 37 38 38 39 39 39 39 39 39 39 40 40 40 41 41 42 43
84 79 76 75 76 76 73 67 62 56 52 49 47 45 44 44 45 45 46 47 47 48 48 49 49 49 50 49 48 49 49 48 48 48 47 47 46 45 44 43 42 41 41 40 41 41 41 41 41 40 40 40 39 38 37 36 35 35 34 34 34 33 33 32 32 31 31 31 31 30 31 31 31 31 32 32 32 33 33 33 33 32 32 32 32 32 32 32
85 80 79 78 77 74 66 58 51 47 44 42 42 41 42 43 44 45 46 47 48 48 48 49 48 48 48 47 47 47 47 46 46 46 45 44 44 44 43 43 43 43 42 41 41 41 40 39 38 37 36 34 33 32 30 29 28 27 26 26 26 26 25 25 25 25 24 24 24 24 25 25 25 25 25 25 26 26 26 26 26 27 27 27 27 27 27 27
84 81 80 78 73 65 57 51 48 47 47 49 51 52 54 55 56 57 57 57 56 56 56 57 56 56 56 55 54 53 52 53 53 53 53 52 50 49 47 44 42 40 38 35 34 32 31 30 29 28 27 27 26 25 25 24 23 23 22 22 22 22 22 22 22 21 21 22 22 22 23 23 23 23 23 23 23 24 24 24 24 25 25 25 26 26 26 26
82 82 80 74 65 57 54 53 55 56 57 59 61 62 65 66 65 65 64 63 63 62 62 61 61 60 60 61 60 59 57 55 53 50 47 43 40 37 34 32 30 28 27 27 26 25 25 24 24 24 24 23 23 23 23 23 22 22 22 22 22 23 23 23 23 24 24 24 25 24 25 25 25 26 26 26 26 26 26 27 27 27 27 27 28 28 28 28
84 83 76 66 59 58 60 62 63 65 66 68 69 70 71 70 68 66 66 66 65 64 64 63 64 65 65 64 61 55 50 43 37 34 31 29 28 27 27 26 26 25 24 24 23 22 22 22 22 22 22 22 22 23 23 24 25 25 26 26 27 28 30 30 30 30 30 31 30 30 30 30 30 30 30 30 30 30 30 30 30 30 31 30 30 30 30 31
87 79 68 62 62 66 68 68 70 72 74 75 76 75 71 68 66 66 65 64 64 65 67 69 71 70 65 55 46 39 35 31 29 28 27 26 25 25 24 24 23 22 22 22 22 22 23 23 23 24 25 26 27 28 29 30 31 32 33 33 33 34 35 35 34 34 34 34 34 34 34 34 34 33 33 32 32 33 32 32 32 32 32 32 32 32 32 32
85 72 65 66 69 71 72 73 75 77 78 78 75 71 68 66 65 64 64 64 66 70 73 75 69 59 48 38 32 29 29 28 27 26 25 24 24 23 23 23 23 24 24 25 26 26 27 27 28 30 31 33 35 37 38 39 39 39 38 38 37 37 37 37 36 35 35 35 34 34 35 34 34 34 34 34 34 34 34 34 35 34 35 34 34 33 33 33
77 68 68 72 73 73 74 76 77 77 76 73 70 68 66 64 62 63 65 68 73 77 74 63 50 39 33 30 28 27 26 25 24 24 24 24 24 24 25 25 26 27 28 28 29 30 32 34 36 37 39 40 41 41 41 41 41 40 39 38 38 37 37 37 36 36 36 37 37 37 38 38 38 37 36 36 37 37 37 37 37 36 35 35 34 34 34 34
71 71 74 74 74 74 76 76 77 74 70 68 68 67 64 62 63 65 70 75 76 69 56 42 33 29 28 27 25 25 24 24 24 24 25 26 27 28 28 29 29 29 31 32 34 36 38 40 41 42 42 42 42 42 41 41 41 40 39 38 38 38 39 39 40 40 39 40 40 40 41 42 41 40 39 38 38 37 36 36 35 34 33 32 32 32 32 33
72 75 75 74 74 76 77 76 73 68 67 69 69 66 64 63 66 71 76 75 63 48 36 30 28 27 25 25 24 25 25 26 27 28 28 29 29 29 29 30 31 34 36 39 40 42 43 44 44 44 44 44 43 43 42 41 40 40 40 41 41 41 42 42 42 42 41 41 41 41 42 42 42 40 38 37 36 34 33 32 31 31 30 31 31 31 31 30
76 76 73 74 77 78 76 72 68 68 71 72 69 66 65 67 72 76 72 57 41 32 30 28 26 25 25 26 27 27 28 29 29 30 29 29 29 30 32 35 38 40 42 43 44 46 47 47 47 46 46 46 45 43 42 42 42 43 43 43 43 43 43 42 42 41 40 40 40 40 41 41 40 38 36 35 34 32 31 30 30 29 29 28 28 27 26 25
76 74 74 76 78 76 72 70 71 73 74 71 68 67 67 71 75 70 54 38 30 29 28 26 26 28 28 29 29 29 29 29 29 29 29 30 33 36 40 42 44 46 47 48 49 49 48 48 48 47 47 45 44 43 43 43 44 44 44 44 43 43 42 41 40 38 38 38 40 40 39 38 37 35 33 32 31 30 29 28 27 26 25 24 22 21 19 18
74 74 76 77 76 73 72 73 75 74 72 69 68 68 70 75 70 53 37 30 29 27 27 28 29 30 30 30 30 30 30 31 30 31 33 37 41 44 46 47 49 51 51 51 50 48 48 48 48 47 45 44 44 45 45 45 45 45 45 44 44 44 43 41 39 37 36 38 38 37 35 34 32 31 30 30 29 29 29 28 28 26 24 22 20 18 16 15
75 76 76 74 74 75 75 76 75 72 70 69 68 69 74 72 55 37 31 30 29 28 30 31 31 30 30 30 31 31 32 32 34 38 43 46 48 49 50 51 51 51 49 48 48 48 48 48 47 45 45 45 46 46 46 46 46 46 46 45 45 44 42 39 36 34 33 34 35 34 33 33 31 31 31 32 32 32 32 32 30 29 27 25 23 20 19 17
78 76 74 73 76 77 77 76 74 70 69 68 68 73 73 59 39 31 30 30 30 32 32 31 31 31 30 31 32 32 32 34 40 45 48 49 50 50 50 49 47 46 45 46 47 47 47 46 46 46 47 48 48 48 48 48 47 47 47 46 44 42 39 37 35 34 33 34 35 36 37 37 35 35 36 36 36 36 36 36 34 33 32 30 29 27 25 23
78 73 73 76 80 80 79 75 70 68 69 68 72 75 64 42 31 31 31 31 32 32 32 31 31 31 31 32 32 33 36 43 48 49 50 51 50 49 47 45 44 44 45 46 46 46 47 49 49 50 50 50 49 49 49 49 49 49 48 47 45 44 44 46 47 46 44 41 40 40 42 43 41 41 41 41 41 41 41 41 40 39 39 37 36 34 32 30
74 72 76 80 82 82 78 70 66 67 68 71 76 69 48 33 32 32 31 32 32 32 32 32 32 32 33 33 33 38 45 49 50 51 52 52 49 46 45 45 46 46 47 48 49 50 51 52 51 51 50 50 49 50 51 51 52 52 52 53 54 53 53 55 56 55 52 48 44 43 45 47 45 44 45 45 44 45 45 46 46 46 45 44 43 41 39 36
73 75 80 84 85 81 72 65 66 69 70 75 74 55 36 32 33 31 32 33 32 31 31 31 33 34 34 35 39 45 49 50 51 51 50 47 45 45 45 46 48 50 51 53 53 53 52 52 51 51 50 51 52 52 52 52 53 54 58 62 63 61 58 57 57 57 55 52 49 47 48 51 50 48 48 48 48 47 47 47 47 47 47 46 45 43 40 38
76 81 84 86 83 74 65 64 69 71 74 77 64 42 33 33 32 32 34 33 32 32 32 33 34 34 36 40 46 50 50 51 52 50 48 47 48 49 49 51 53 55 56 56 54 53 53 52 52 51 52 52 53 53 52 53 55 58 62 66 67 63 61 60 58 57 57 55 53 50 50 53 55 53 51 51 51 50 50 49 48 47 45 44 42 40 37 35
82 85 87 85 76 66 62 68 72 74 78 72 51 35 33 33 32 34 34 32 32 33 34 35 35 36 41 47 50 51 52 53 51 49 50 52 53 53 54 56 57 58 56 54 54 54 54 53 52 53 52 51 52 52 53 55 57 59 62 64 65 64 63 63 61 57 56 56 57 55 51 51 56 57 55 54 52 52 51 50 49 48 45 43 40 37 35 33
85 87 87 80 69 63 66 72 75 77 76 60 40 33 33 33 34 34 32 33 34 35 35 36 36 40 47 50 51 51 53 53 50 51 54 55 55 55 56 57 57 55 54 53 54 54 53 52 52 51 50 50 51 53 53 54 55 58 60 61 62 62 63 64 62 58 56 55 56 58 55 50 52 56 56 55 53 52 51 50 50 49 46 44 42 40 37 34
87 87 82 72 65 65 72 77 77 78 69 48 34 33 34 35 35 33 33 35 35 36 36 36 39 46 50 50 51 53 53 51 50 53 56 55 55 55 56 56 54 53 53 54 53 52 51 51 50 49 50 52 52 52 53 53 53 54 57 58 58 60 62 63 61 58 56 55 54 58 60 52 49 54 55 53 52 51 51 51 51 50 49 46 45 44 43 39
89 83 74 68 65 69 76 78 77 74 58 38 33 36 35 35 35 33 35 36 36 37 36 37 44 50 51 51 54 54 52 52 54 57 57 56 55 55 55 53 52 53 54 53 51 50 50 49 49 50 53 54 54 53 55 57 56 56 56 57 56 57 59 61 62 59 56 55 53 56 62 56 50 54 55 52 52 52 51 51 51 51 51 51 50 50 49 45
86 76 71 68 67 73 78 77 76 67 47 35 36 37 35 36 35 35 37 37 37 37 36 41 49 51 51 53 55 55 54 56 59 59 57 55 55 54 53 52 54 54 53 50 49 48 48 50 51 53 55 57 58 56 56 59 62 62 60 59 57 57 58 60 62 61 58 57 54 54 62 60 52 55 59 56 55 55 53 53 53 54 56 57 57 56 54 52
80 73 71 68 69 77 77 75 73 57 40 36 38 37 38 38 35 37 38 37 37 37 38 46 52 51 52 56 57 57 59 60 60 59 56 55 54 53 53 54 55 53 50 49 49 48 49 51 54 56 58 60 62 62 59 58 62 65 65 65 63 61 62 62 61 62 60 59 56 54 62 64 56 57 62 60 59 59 56 57 59 60 62 64 62 61 59 58
78 74 70 68 73 77 75 75 67 48 37 38 38 39 39 37 36 38 38 37 37 37 43 51 53 52 55 59 60 60 61 61 60 59 56 55 54 54 55 55 53 50 50 50 49 49 50 52 56 60 64 63 62 63 63 59 60 65 68 70 68 65 65 65 63 63 63 63 61 57 62 69 61 58 64 63 62 63 60 60 62 64 68 69 67 66 65 64
79 73 68 70 76 76 76 73 57 42 39 40 39 40 39 37 38 39 38 38 37 40 48 54 52 53 58 61 62 61 61 60 60 59 56 54 55 55 56 53 50 50 51 51 51 51 52 54 57 61 68 72 68 63 65 64 61 63 67 71 73 69 67 67 66 66 66 69 70 63 63 72 67 61 67 67 65 67 64 62 63 66 72 75 72 72 72 70
75 69 69 74 77 76 75 66 49 40 41 40 40 41 40 39 39 38 38 38 39 44 52 53 52 55 61 63 62 61 61 62 61 58 55 55 56 56 53 50 49 52 52 53 54 54 55 57 58 58 64 74 77 70 68 69 67 67 68 71 76 75 72 69 65 64 65 69 75 71 66 74 74 68 72 72 68 69 69 66 66 68 72 76 74 75 76 76
70 69 74 77 76 75 72 58 44 41 41 41 43 42 40 38 37 38 38 39 41 48 53 53 52 57 63 64 63 63 65 64 60 57 56 57 56 53 48 47 49 51 52 54 55 55 56 57 59 58 56 66 80 79 74 74 74 73 72 74 79 80 80 79 73 67 64 66 76 80 75 75 76 74 77 77 73 73 73 71 71 70 72 76 76 77 80 80
70 74 78 78 75 75 67 51 41 42 42 43 44 41 38 38 38 38 39 40 45 51 54 52 52 58 64 64 64 68 68 64 59 57 58 57 53 48 45 46 48 50 52 53 53 54 56 57 59 61 56 59 75 83 79 78 78 74 72 76 83 83 84 89 84 74 68 67 72 80 82 80 78 78 81 81 77 77 79 77 75 75 78 81 82 83 85 84
74 79 80 77 76 74 60 45 42 44 42 43 43 40 38 39 39 39 40 43 48 52 54 52 53 61 65 66 70 72 68 62 60 59 57 53 47 44 45 47 49 50 51 52 52 53 55 56 60 63 60 57 65 75 76 77 78 75 74 78 81 80 80 86 87 81 73 69 69 76 86 89 84 80 85 86 83 83 85 83 80 79 84 87 87 88 89 87
78 82 79 75 76 70 52 43 44 43 42 45 43 40 39 38 38 39 41 46 50 53 54 52 56 64 69 74 76 72 65 62 61 58 53 48 45 46 48 50 50 51 51 51 51 51 52 54 58 63 64 60 61 66 68 71 75 76 76 76 76 77 79 83 89 87 75 69 74 81 88 92 88 84 87 91 89 89 90 87 83 85 92 94 92 90 91 90
82 82 77 76 77 63 46 44 45 42 44 46 42 39 38 38 38 40 43 48 51 53 53 54 59 69 77 82 77 68 64 63 59 54 48 46 48 50 51 52 52 52 52 51 51 51 51 52 54 58 62 62 62 64 65 67 69 70 72 72 71 73 77 78 82 81 71 67 74 80 80 83 84 84 87 92 93 94 94 91 88 93 100 101 96 94 94 93
84 81 76 78 75 56 45 47 45 43 46 45 42 39 38 38 39 41 45 49 52 54 54 56 65 77 84 82 73 65 63 60 54 49 48 48 51 52 51 52 52 51 51 51 51 51 52 53 54 56 58 60 61 62 62 62 62 62 64 65 65 65 66 67 69 68 64 63 65 68 70 72 76 80 86 95 99 101 103 100 95 99 105 104 99 97 97 97
84 78 76 80 71 51 47 48 44 43 46 44 41 39 38 39 40 43 47 49 52 55 55 58 72 85 85 77 69 65 61 55 50 50 50 50 51 50 49 49 48 49 49 49 50 50 51 52 54 55 57 58 58 59 59 58 58 59 60 59 59 60 60 64 68 65 61 61 61 63 66 66 69 73 79 89 97 103 108 103 96 100 107 105 102 99 98 98
Wind_Speed
23 23 24 26 28 32 38 44 46 41 36 35 36 38 38 38 38 39 39 39 38 38 37 36 35 36 36 37 37 38 39 40 40 41 41 42 43 45 46 46 46 47 46 46 46 47 48 48 49 50 51 51 52 53 54 55 55 56 58 59 57 55 56 56 57 58 59 59 59 60 61 63 64 64 66 67 68 69 70 71 71 72 73 74 75 76 77 77
22 23 24 25 27 31 36 43 49 47 40 36 36 37 38 39 40 41 42 42 41 40 39 38 38 38 37 38 38 39 40 41 42 43 44 44 45 47 47 48 49 50 50 49 49 50 51 51 52 52 53 53 54 55 57 58 59 60 61 60 58 58 59 59 60 61 62 62 62 63 64 65 66 67 68 69 69 70 72 73 74 75 76 77 78 79 80 80
21 22 23 25 27 30 35 41 48 51 46 38 36 36 38 40 41 41 42 43 43 43 42 42 41 41 40 39 39 40 42 43 44 45 45 46 47 48 48 49 50 50 51 51 52 52 53 54 54 54 54 55 55 56 57 59 61 63 62 61 59 60 61 62 63 64 65 65 66 67 67 69 70 70 71 71 71 72 73 74 76 77 78 79 80 81 82 83
20 21 22 23 26 29 34 39 47 52 50 43 39 36 36 38 41 42 42 41 41 40 40 40 41 40 41 40 39 40 42 43 45 45 45 45 46 47 48 49 50 51 52 53 53 54 54 55 55 55 55 55 56 57 57 59 61 63 63 62 61 62 63 63 64 65 66 68 70 71 72 72 73 73 74 75 75 75 77 78 79 80 81 81 82 83 84 84
19 20 21 23 25 28 32 38 44 51 53 48 43 40 37 35 36 38 40 42 42 40 40 39 40 41 41 41 41 42 43 44 45 46 46 45 46 47 48 49 50 51 52 53 54 54 55 56 56 57 57 58 59 59 59 60 63 64 64 64 64 64 65 65 66 66 67 69 71 73 74 75 76 77 78 78 79 79 80 82 83 84 85 85 85 86 86 87
18 19 20 21 24 27 30 36 42 48 53 51 46 44 41 38 36 35 35 38 42 43 44 44 45 45 45 45 46 47 47 47 47 48 49 49 49 49 50 50 51 52 53 55 56 57 58 58 59 59 59 60 62 62 62 63 64 64 64 66 67 67 67 67 67 68 69 70 71 73 75 77 78 80 81 82 83 83 84 85 86 87 88 89 89 90 90 91
17 18 19 20 22 25 28 33 39 45 51 53 49 46 45 43 40 39 37 36 39 40 43 44 45 46 45 46 48 48 48 49 49 49 50 50 51 52 52 52 53 54 55 56 58 59 61 62 62 63 62 62 64 65 65 66 67 65 65 66 67 68 68 68 68 69 70 71 72 74 76 77 80 82 84 86 87 88 88 88 88 89 90 91 92 93 93 94
16 17 18 19 21 23 26 30 35 41 48 52 52 50 49 47 43 41 42 42 41 41 41 42 43 43 44 45 46 47 48 48 49 50 51 51 52 53 53 54 55 56 57 57 59 60 62 64 65 66 66 67 67 68 69 70 70 68 66 66 68 69 70 70 71 71 72 73 73 75 77 79 81 83 85 86 88 89 89 89 89 90 91 92 94 95 96 97
15 16 17 18 20 22 24 28 31 37 43 49 53 52 51 51 47 44 44 46 47 46 46 46 45 44 44 45 46 47 48 49 50 50 52 53 54 55 56 56 57 57 58 59 60 61 63 65 66 68 69 70 71 72 73 73 74 73 72 71 71 73 74 75 76 76 77 78 79 81 83 84 86 87 88 89 89 89 89 89 90 90 92 93 94 96 97 99
14 15 16 17 18 20 23 26 29 33 38 44 49 53 53 53 52 50 48 48 50 50 50 50 50 49 48 48 48 49 50 51 52 53 54 55 57 58 59 59 59 60 60 61 62 63 64 65 66 68 69 71 73 73 74 75 76 75 75 75 75 76 78 79 81 82 82 84 86 88 90 92 93 94 95 94 94 93 93 93 94 94 95 96 97 97 98 99
14 15 15 16 18 20 22 24 26 29 33 38 43 48 53 55 55 54 52 51 52 52 52 53 54 54 54 54 54 55 55 55 56 57 58 59 60 61 62 63 64 64 65 66 66 67 68 69 70 72 73 75 76 77 78 79 79 79 79 80 80 81 82 83 84 85 87 90 92 93 94 96 97 99 99 99 98 98 99 99 100 100 101 101 101 101 102 102
14 14 14 15 17 19 21 23 25 27 30 33 37 42 47 52 55 56 55 54 53 54 54 54 55 56 57 58 59 61 62 62 63 63 64 64 64 65 66 67 68 69 70 71 72 73 74 75 76 77 78 80 81 82 83 84 84 84 85 85 85 86 88 89 90 92 94 96 97 97 97 98 99 100 100 99 100 101 102 103 104 105 105 105 105 106 106 106
13 13 14 15 17 18 20 22 24 27 29 31 34 37 41 46 52 55 58 58 57 56 56 56 56 56 56 57 59 61 63 65 66 67 69 69 70 70 71 72 73 73 74 75 76 77 78 79 80 81 83 85 86 87 88 89 90 91 91 92 92 93 95 96 97 98 98 99 99 99 99 100 102 102 102 101 102 103 104 105 106 107 108 108 109 109 110 110
13 13 14 15 16 17 19 21 23 25 28 30 32 35 37 40 44 49 53 56 58 59 60 60 60 61 61 61 61 62 63 64 66 67 69 70 71 72 73 75 76 77 78 78 79 81 82 83 84 86 87 89 90 91 92 94 95 95 95 95 96 96 97 97 97 98 98 99 99 100 100 102 104 104 105 105 106 107 108 109 110 110 111 112 113 113 114 115
13 13 13 14 15 16 17 19 21 23 25 28 31 33 35 37 39 42 45 48 52 55 57 59 61 63 64 65 66 66 67 67 68 69 70 71 72 73 75 76 77 79 80 81 82 83 85 86 87 88 90 91 92 92 93 94 95 95 95 95 95 96 96 96 97 98 98 99 100 100 101 102 103 104 105 106 108 109 110 111 112 113 114 115 116 117 119 120
13 13 13 13 14 14 15 17 18 21 23 25 27 29 31 34 36 38 41 43 45 48 50 53 55 57 59 61 63 64 65 66 68 69 71 72 74 75 76 78 79 80 81 82 83 84 86 87 88 89 90 91 92 92 92 93 93 93 93 93 92 92 92 93 93 94 94 94 95 96 96 97 98 99 101 102 104 105 107 108 109 111 112 113 115 116 117 119
14 14 13 13 14 15 16 17 18 20 21 23 24 26 27 29 32 34 36 38 41 43 45 47 49 51 53 55 56 58 60 61 63 65 67 69 70 72 73 75 76 77 78 79 80 81 82 83 84 84 85 86 86 86 86 86 86 86 86 85 85 84 84 84 85 85 85 86 87 88 88 89 90 91 92 94 96 97 99 100 102 103 105 106 108 110 111 113
14 14 13 14 15 16 17 18 19 20 21 22 23 24 25 26 28 29 31 32 34 36 38 40 42 44 46 48 50 51 53 55 57 58 60 62 64 65 66 68 69 70 71 72 73 73 74 74 75 75 76 76 77 77 77 77 77 77 76 76 75 75 75 75 76 76 77 77 78 79 79 80 82 83 84 85 87 88 90 91 93 94 96 97 99 101 102 104
14 13 14 15 16 17 18 19 19 19 20 20 21 22 22 23 23 24 25 27 28 30 31 33 35 37 39 41 43 44 46 48 49 51 53 55 57 58 59 61 62 62 63 64 64 64 65 65 65 65 65 66 66 67 67 67 67 67 67 67 66 66 66 67 67 68 69 69 71 71 72 74 75 76 78 79 81 82 83 85 86 87 89 90 91 93 94 96
13 14 15 16 17 17 18 18 19 19 19 19 19 19 19 20 20 22 23 24 26 28 30 32 34 35 37 39 41 42 44 45 46 48 50 51 53 54 55 55 56 56 56 56 55 55 55 55 56 56 57 57 58 59 59 60 60 61 61 61 60 60 60 61 62 63 63 64 66 67 68 70 71 72 74 75 76 78 79 81 82 84 85 87 88 89 91 92
13 15 16 16 17 17 17 17 18 18 17 17 17 17 18 20 21 23 25 27 28 30 32 34 36 37 39 40 42 43 44 45 46 47 48 48 48 48 48 48 48 48 48 48 48 48 49 49 50 50 51 52 52 53 54 54 55 55 56 56 56 56 57 58 59 60 61 62 64 65 66 68 69 70 72 73 74 76 77 79 80 82 84 85 87 88 90 91
14 15 16 16 16 16 16 16 16 16 16 17 18 19 21 23 24 26 28 30 31 33 35 36 38 39 40 41 43 44 44 44 43 43 42 42 42 42 42 42 43 43 43 44 44 45 45 45 45 46 46 47 48 49 50 51 52 53 53 54 54 54 55 57 58 59 60 61 63 65 66 67 69 70 72 73 74 75 77 79 81 82 84 86 87 89 90 92
14 15 15 15 15 15 15 15 15 16 17 18 20 22 24 26 27 29 30 32 34 36 38 39 40 41 42 43 42 41 40 39 38 38 38 37 38 38 38 39 40 40 40 41 41 41 42 42 42 43 44 45 46 47 48 49 50 51 52 53 54 54 55 57 58 59 61 62 64 65 66 68 69 71 72 73 74 76 78 80 82 83 85 87 89 90 92 93
14 15 15 14 14 14 14 14 15 17 19 21 23 25 27 28 30 31 33 36 37 38 40 41 42 42 42 40 37 36 35 35 35 35 35 35 35 35 35 36 36 37 37 37 38 39 39 40 41 41 42 43 45 46 47 48 49 51 52 53 54 55 56 58 59 60 61 62 64 65 67 69 70 71 72 73 75 77 79 80 83 85 86 88 90 91 93 95
14 14 14 14 13 13 14 15 17 19 21 23 26 28 29 31 33 34 36 38 39 41 42 42 41 38 36 35 33 33 33 32 32 32 32 32 33 33 33 33 34 34 35 36 36 37 38 39 40 41 41 42 43 45 46 48 50 51 52 53 55 56 57 59 60 61 62 64 65 67 68 71 73 74 73 74 76 78 79 81 84 86 88 89 91 92 94 95
14 13 13 13 13 13 15 17 19 21 24 26 28 30 32 33 35 37 39 41 42 42 42 39 36 33 32 32 31 31 31 30 30 30 30 30 31 31 31 32 33 33 34 35 36 37 38 38 39 40 41 43 44 46 48 49 51 52 53 55 56 57 59 61 62 64 65 65 67 68 69 71 74 75 74 74 76 78 79 81 83 84 86 87 88 90 91 93
13 13 13 13 13 14 16 19 22 24 26 28 31 33 35 36 38 40 41 42 42 39 36 33 32 31 30 29 29 29 28 29 29 29 29 29 30 30 31 32 33 33 34 35 36 37 38 39 40 41 43 44 46 47 48 50 52 54 55 57 58 59 61 62 63 64 65 66 67 68 68 69 72 73 73 74 75 76 77 78 80 81 82 83 85 86 88 89
12 12 12 13 14 16 19 22 24 27 29 31 33 35 37 38 40 41 42 41 37 34 32 31 30 29 28 28 27 27 27 27 27 28 28 29 29 31 32 32 33 34 35 35 36 37 38 40 41 42 43 45 46 47 49 51 53 55 57 58 59 60 62 63 63 64 64 64 65 65 64 65 68 70 69 71 72 73 74 74 75 76 77 78 80 82 84 85
11 12 13 14 16 19 22 24 26 29 31 33 35 37 39 40 41 42 40 36 32 30 29 29 28 27 27 27 26 26 26 26 26 27 28 29 30 31 32 33 33 34 35 36 37 38 40 41 42 43 44 46 47 49 51 52 54 55 57 59 60 61 62 63 63 62 62 62 62 62 61 61 64 66 66 67 68 69 69 69 70 71 72 74 75 77 78 80
11 12 13 15 18 21 24 26 29 31 33 34 36 38 39 41 41 40 36 32 30 29 28 27 26 26 25 25 25 25 25 26 27 28 29 30 31 32 33 33 33 34 35 37 38 40 41 42 43 44 45 47 49 51 53 54 55 57 59 60 61 62 62 62 61 60 59 58 59 59 58 59 61 63 64 65 66 67 67 68 68 69 70 72 73 74 75 77
12 13 15 17 20 23 26 28 31 33 34 36 38 39 40 41 40 36 32 30 29 28 27 26 25 24 24 24 24 24 25 26 28 29 30 31 31 31 32 33 34 35 37 38 39 40 41 42 44 45 47 49 51 52 54 56 58 59 60 61 62 61 61 60 59 58 57 56 57 57 58 60 61 62 64 65 65 66 67 68 69 69 70 71 72 73 74 76
12 14 17 20 23 25 28 30 33 34 36 37 38 40 40 40 36 31 30 29 27 26 26 25 24 24 23 23 24 25 26 28 28 29 29 30 30 31 32 33 35 37 38 39 40 41 42 44 46 47 49 51 52 54 56 58 60 61 62 62 61 60 60 59 58 58 57 56 56 58 61 63 63 63 64 64 65 66 66 67 67 68 69 69 70 71 72 73
14 16 19 22 24 27 30 32 34 35 37 38 39 40 40 37 32 30 29 27 26 25 25 24 24 23 23 24 25 27 28 28 29 29 30 30 31 33 34 36 38 39 40 41 41 42 44 46 47 49 51 53 55 57 59 60 61 62 61 61 60 59 58 57 57 58 59 58 57 58 60 63 64 63 64 64 63 64 64 64 65 65 66 66 67 68 68 69
15 18 21 23 26 29 32 34 35 36 37 38 40 40 38 33 30 29 27 26 25 24 24 23 23 24 24 26 26 27 28 28 28 29 29 30 33 35 36 38 39 39 40 42 43 44 46 48 50 52 54 56 58 59 60 61 60 60 59 58 57 56 54 54 54 55 57 58 58 58 58 60 62 62 62 62 61 61 61 61 62 62 63 63 63 64 64 65
17 20 22 25 28 31 34 35 36 37 38 39 40 39 34 30 29 28 26 26 25 24 23 23 23 25 26 27 28 28 28 28 28 29 30 31 34 35 37 38 39 40 42 43 45 47 49 51 53 55 57 59 60 60 60 59 58 57 55 54 53 53 52 51 51 51 54 57 58 58 56 56 60 61 59 59 59 59 58 59 59 60 60 61 61 61 61 61
19 21 24 27 30 33 35 35 36 37 38 40 40 36 31 29 28 27 26 25 24 23 23 24 25 26 27 28 29 28 28 28 28 30 32 34 36 37 38 39 40 42 43 45 48 50 52 54 56 58 59 59 59 59 58 56 55 54 52 51 50 50 50 50 50 49 51 54 57 58 54 51 55 58 58 56 57 57 56 57 57 58 58 59 59 60 60 60
20 23 27 30 32 34 35 36 37 38 39 40 38 33 30 28 27 26 25 24 23 23 23 24 26 27 28 28 28 28 28 28 29 31 34 36 38 39 40 41 42 44 46 48 51 53 55 57 58 59 59 59 58 56 55 53 52 50 49 48 47 47 47 47 48 47 48 50 53 58 57 50 49 54 56 54 54 55 55 56 56 57 58 58 58 59 59 59
22 26 29 32 34 35 36 36 37 38 40 39 34 30 29 28 26 25 24 23 23 23 24 25 26 27 28 28 28 28 27 28 31 33 36 38 40 41 42 43 44 47 49 52 54 56 58 59 59 59 58 57 55 54 52 50 48 47 47 46 45 45 45 45 46 46 46 47 48 54 59 54 48 51 54 54 54 54 55 55 56 57 58 58 58 59 59 59
25 28 31 33 35 36 36 37 37 39 40 37 31 29 28 27 26 25 24 23 23 24 25 26 27 28 28 28 28 27 28 30 32 35 37 40 41 42 43 45 47 50 53 55 56 58 59 58 58 57 56 54 53 52 51 50 48 46 45 45 44 43 44 44 44 45 45 46 46 49 57 57 50 50 53 54 54 55 55 55 56 57 58 59 59 59 60 60
27 30 33 34 36 36 37 37 38 40 39 34 29 28 28 27 26 24 24 24 24 25 26 27 28 28 28 28 28 28 29 32 34 37 39 41 43 44 45 47 50 53 55 57 58 58 58 57 56 55 54 53 51 50 50 50 50 48 46 45 44 43 43 43 44 45 45 47 47 47 53 58 53 51 54 55 55 56 57 57 57 57 58 59 60 60 61 61
30 32 34 35 36 37 37 38 39 40 37 31 29 28 27 26 25 24 24 24 25 26 27 28 28 28 28 28 28 29 31 33 36 38 41 43 45 46 48 51 54 56 57 58 58 57 56 55 54 53 52 51 51 50 49 49 50 50 48 47 46 44 43 43 44 45 46 47 48 48 51 57 55 52 54 56 56 57 58 58 58 58 59 60 61 62 62 63
31 33 35 36 37 37 37 38 40 39 34 30 29 28 27 26 25 24 25 25 25 26 27 28 28 28 28 28 29 30 32 35 37 40 43 45 46 48 51 54 57 58 58 57 56 55 54 54 53 53 51 50 50 50 49 48 48 49 49 49 49 46 45 44 44 45 47 48 50 49 51 57 56 52 54 56 56 58 59 59 60 60 60 62 63 64 64 65
33 35 36 37 37 38 38 39 40 36 31 29 29 28 26 26 25 25 25 25 26 27 28 28 29 28 28 29 30 31 34 37 39 42 45 47 49 52 55 57 58 57 56 55 54 53 53 53 52 52 51 50 49 48 49 49 48 48 49 50 50 49 46 45 45 45 47 50 52 50 51 57 58 54 55 57 57 58 60 60 60 61 62 63 64 65 66 68
34 36 37 37 37 38 39 40 39 34 30 29 28 27 26 26 25 25 26 26 27 27 28 29 29 29 29 30 31 33 35 38 41 45 47 49 52 55 57 57 56 55 54 53 53 53 53 52 52 51 50 50 51 50 49 50 49 48 48 49 51 51 49 47 46 46 47 51 55 54 52 58 62 58 57 59 58 59 61 62 62 62 63 65 66 67 69 70
35 37 37 37 38 38 39 40 37 31 29 29 28 27 26 25 25 26 26 26 27 28 29 29 29 29 30 31 33 35 37 40 44 47 49 51 54 56 56 55 54 53 52 52 52 53 52 52 52 51 49 48 49 51 51 51 51 50 49 49 51 53 53 52 50 48 48 50 55 58 54 56 63 62 61 62 61 60 62 63 64 64 64 66 68 69 71 72
36 37 37 38 38 39 40 39 34 29 29 29 27 27 26 26 26 26 26 27 28 29 30 30 30 30 31 32 34 36 39 43 46 49 51 54 56 56 55 53 52 52 52 52 52 53 53 52 52 52 50 47 47 50 51 51 51 51 50 49 50 52 54 55 55 53 51 50 53 59 59 57 61 62 63 64 63 62 63 64 65 66 67 69 70 72 73 74
37 37 37 38 39 40 40 37 32 29 29 28 27 27 26 26 26 26 27 28 29 30 31 31 31 31 32 33 36 38 42 45 48 51 53 55 55 54 53 52 52 52 52 53 53 53 53 53 53 53 52 49 47 49 51 51 52 51 51 50 50 51 53 56 58 58 56 53 53 57 61 61 61 61 62 64 64 63 64 65 66 67 69 71 72 73 75 76
37 37 37 38 39 40 40 35 30 29 29 28 27 27 26 26 26 26 27 28 29 30 31 32 32 32 33 35 37 40 44 47 50 52 54 54 53 52 52 52 52 53 53 53 53 53 53 53 53 54 54 52 49 49 50 51 52 53 52 50 50 51 52 55 58 60 59 57 56 57 60 63 64 62 62 64 65 65 66 67 68 68 70 72 74 75 76 78
37 37 38 38 39 40 38 32 29 29 29 28 27 27 26 26 26 26 27 28 29 30 31 32 33 34 35 37 40 43 46 49 52 53 53 53 52 52 52 53 53 54 54 53 53 53 52 52 52 52 55 55 53 51 52 52 53 54 54 53 52 53 54 55 58 60 61 60 60 59 60 62 65 64 63 64 65 66 67 69 69 70 71 73 75 76 77 79
37 37 38 39 40 40 36 30 29 29 29 28 27 27 26 26 26 27 27 28 29 31 32 33 33 35 37 39 41 44 47 50 52 52 52 51 51 52 53 53 53 53 53 53 52 52 51 51 51 51 53 55 55 55 55 54 55 55 56 57 57 57 57 58 59 62 63 62 62 62 61 61 63 64 65 65 66 67 69 70 71 71 73 75 76 77 78 80
37 38 39 40 41 40 34 29 29 30 29 28 28 27 27 26 26 27 27 28 30 31 32 33 34 35 37 40 43 46 48 50 51 50 50 50 50 51 51 51 51 51 51 50 50 50 50 50 50 51 51 53 55 56 56 56 57 58 59 59 60 60 59 60 62 64 65 65 63 64 64 63 63 64 64 65 67 68 70 72 72 72 74 76 77 78 79 80
37 38 39 40 41 39 32 29 30 30 29 28 28 27 27 26 26 27 27 29 30 31 32 33 34 35 37 40 44 46 48 49 49 49 49 49 49 49 49 49 49 49 49 49 50 50 51 51 51 52 53 54 55 56 57 57 58 60 60 60 61 62 62 64 66 67 68 68 67 66 66 66 65 65 64 65 67 68 70 73 72 72 74 76 77 78 79 80
Wind_Direction
221 221 220 217 214 211 209 208 204 203 211 221 226 230 232 233 236 234 232 234 239 244 248 247 243 240 239 242 245 248 252 255 255 255 254 254 254 256 257 257 257 257 257 257 258 258 258 257 257 257 257 258 257 257 258 257 257 257 257 257 257 257 257 257 257 258 257 256 256 256 256 257 256 255 255 256 256 257 257 257 257 258 258 258 258 257 257 257
221 221 220 217 215 212 210 209 207 205 209 219 226 229 231 234 237 237 235 235 238 242 246 249 249 247 245 244 246 249 252 255 257 258 258 258 258 259 260 261 262 262 261 261 260 260 260 260 260 260 260 260 260 259 260 259 258 258 258 258 259 260 259 259 259 259 260 259 259 258 258 259 258 258 258 258 258 259 259 259 259 259 259 259 259 259 259 259
222 222 221 219 216 213 212 210 209 207 209 215 223 227 231 234 236 238 239 239 242 245 247 249 251 253 253 252 252 254 255 256 257 257 257 258 259 260 261 262 263 264 265 265 265 263 263 263 263 263 263 263 262 261 262 261 259 258 259 260 260 261 261 261 261 261 261 261 261 261 260 260 260 260 260 260 260 261 261 261 261 261 260 260 260 260 260 260
223 222 221 220 218 215 213 212 210 209 209 212 219 224 230 235 237 238 240 243 245 247 248 250 253 255 257 258 257 258 260 262 262 260 258 257 258 260 261 262 262 263 264 264 265 265 265 266 266 266 266 266 264 263 263 262 260 259 259 260 261 262 263 263 263 262 262 262 262 262 262 261 261 261 261 260 260 260 261 262 262 262 262 262 262 262 262 262
224 223 223 221 220 218 214 213 212 211 211 212 217 221 226 233 237 240 243 247 248 248 247 249 253 256 257 258 257 257 259 262 264 265 264 263 262 262 263 264 264 265 265 266 266 266 266 266 267 267 268 268 267 265 263 263 261 260 260 261 262 263 264 264 264 264 263 263 263 262 262 262 262 261 260 260 260 260 260 261 262 263 263 263 263 263 263 263
226 225 224 222 221 220 217 215 214 214 213 214 217 220 223 228 233 236 241 247 250 252 251 251 255 258 257 257 257 258 259 259 260 262 264 265 264 264 264 265 265 266 267 268 269 269 269 269 269 269 269 269 269 269 267 265 264 263 262 263 263 264 264 265 265 265 265 264 264 263 263 263 263 262 261 261 261 261 261 262 263 263 264 264 263 263 263 263
228 227 226 223 222 222 221 219 217 216 216 216 218 220 224 227 232 234 234 238 243 249 252 253 257 259 259 259 260 262 262 261 261 262 263 264 264 264 264 264 264 265 266 266 267 268 269 270 271 271 271 271 271 271 270 270 268 266 265 265 265 265 265 265 265 265 265 265 265 265 265 265 264 263 263 263 263 263 264 264 264 264 264 264 264 263 263 263
229 230 230 228 225 224 224 223 221 220 219 219 220 222 224 227 231 234 234 236 238 241 246 250 252 252 254 257 259 261 262 263 264 264 265 265 266 267 267 267 266 266 266 266 266 266 268 269 270 271 272 272 273 273 273 273 273 272 270 270 270 271 271 270 269 267 266 266 267 267 267 267 266 266 266 265 265 265 265 265 265 264 264 264 264 264 264 264
231 233 234 232 229 227 226 226 224 223 223 223 223 224 226 228 231 233 235 238 240 242 244 245 246 245 247 250 253 256 258 260 260 261 261 262 263 265 265 265 265 265 265 265 265 266 267 267 268 269 270 270 271 272 273 274 275 276 276 276 276 276 276 276 275 275 274 273 273 273 273 273 272 271 271 270 269 269 268 267 266 265 265 264 264 264 264 264
232 235 236 235 233 230 229 228 227 227 227 227 228 228 228 230 233 234 236 238 241 244 245 245 245 244 246 248 250 253 254 255 256 256 257 258 259 260 260 261 261 261 262 262 263 263 264 264 265 265 266 267 268 269 270 272 273 274 275 274 274 274 274 275 276 277 277 277 278 278 278 277 277 277 276 275 275 274 274 273 271 270 269 268 267 266 266 265
233 236 235 235 235 234 233 232 231 231 232 232 232 232 232 233 235 237 239 240 241 244 245 246 247 248 251 252 252 253 253 254 255 255 256 257 258 258 259 260 260 260 261 261 261 262 262 262 263 263 263 264 265 266 267 268 268 269 269 270 270 270 271 272 273 274 275 275 276 276 276 276 276 276 276 276 276 276 276 275 275 274 273 273 272 271 271 270
233 236 239 239 239 238 238 237 236 235 235 236 235 235 235 235 237 239 242 244 244 245 246 248 250 252 254 255 255 255 255 255 256 257 257 258 259 259 260 261 262 261 262 262 262 262 263 263 263 264 264 265 265 266 267 267 267 268 268 268 269 269 270 270 271 273 274 274 274 274 274 274 274 274 274 274 274 274 274 274 274 274 274 274 274 273 273 273
236 240 244 247 247 245 244 242 241 240 240 240 240 240 239 239 239 240 242 245 247 248 249 251 252 254 255 256 257 257 257 258 258 259 260 261 261 262 263 264 265 265 265 265 265 265 265 265 265 266 266 267 267 268 269 269 270 270 270 271 271 271 272 273 273 274 275 275 275 274 274 274 274 274 273 273 273 272 272 272 272 272 273 273 273 273 273 273
246 247 250 253 253 252 251 249 248 247 245 245 244 244 244 244 244 244 245 246 248 250 251 253 254 255 257 258 259 260 260 261 261 262 263 264 265 265 265 266 267 267 268 268 268 268 268 269 269 269 270 270 271 271 272 272 272 273 273 273 273 274 274 274 275 275 275 275 275 275 274 274 274 274 274 273 273 272 272 272 272 272 272 272 272 272 272 272
255 259 262 262 260 259 258 257 255 254 252 251 250 250 250 250 250 250 250 251 252 253 254 255 256 257 259 260 261 262 264 265 266 266 266 266 267 268 268 269 269 269 269 270 270 271 271 272 272 273 273 273 273 274 274 274 274 275 275 275 275 275 275 275 276 275 275 275 275 274 274 274 274 274 273 273 273 272 272 272 272 272 272 271 271 271 271 271
264 271 274 272 269 268 266 265 264 261 260 258 258 257 256 256 256 256 256 256 256 257 258 259 260 261 262 263 264 265 266 267 267 268 268 268 268 269 269 270 270 270 271 271 272 272 273 273 274 274 275 275 275 275 275 276 276 276 276 276 276 276 276 276 276 276 275 275 275 274 274 274 273 273 273 273 272 272 272 272 272 272 272 271 271 271 271 271
271 277 278 277 278 278 276 273 271 269 268 267 265 264 263 262 261 261 261 261 261 261 262 263 263 264 265 265 266 267 267 268 268 269 269 270 270 270 270 270 271 271 271 272 272 273 273 274 274 275 275 275 276 276 276 276 276 276 277 277 277 277 277 277 276 276 276 275 275 275 275 274 274 273 273 273 273 273 273 273 273 272 272 272 272 272 272 271
274 277 278 280 282 281 280 279 278 277 276 274 272 270 268 267 267 266 266 266 266 266 266 266 266 266 267 267 268 268 269 269 270 270 270 271 271 271 271 272 272 272 272 273 273 274 274 275 275 275 276 276 276 277 277 277 277 277 277 277 277 277 277 277 277 276 276 276 276 276 275 275 274 274 274 274 274 274 274 274 273 273 273 273 273 273 273 273
273 276 280 282 283 285 286 286 285 284 282 280 278 277 275 275 274 273 273 273 273 273 273 273 273 272 272 273 272 272 272 271 272 272 272 272 272 272 273 273 274 274 274 275 275 275 276 276 276 277 277 277 277 277 278 278 278 278 278 278 278 278 278 277 277 277 277 277 277 276 276 275 275 275 275 274 274 274 274 274 274 274 274 274 274 274 273 273
273 277 281 285 287 290 290 291 290 288 286 284 283 284 285 285 285 285 285 285 285 284 284 284 284 283 282 281 280 279 277 276 276 276 276 276 276 276 276 277 277 277 277 277 277 277 277 278 278 278 278 278 279 279 279 279 279 279 279 279 279 279 278 278 277 277 276 276 276 276 276 275 275 275 274 274 274 274 274 274 274 274 274 274 274 274 274 274
276 281 285 290 292 294 294 293 291 290 290 290 292 294 295 296 296 296 295 294 293 292 292 290 289 288 287 286 285 284 283 282 281 280 280 280 280 280 280 281 280 280 280 279 279 279 278 278 278 278 279 279 279 280 281 281 282 282 282 282 282 282 282 281 281 280 280 279 279 278 278 278 277 277 276 276 276 276 276 275 275 275 275 275 274 274 274 274
280 287 292 294 296 296 294 292 292 295 299 302 302 302 302 301 301 299 298 297 297 296 295 294 293 292 291 290 289 289 288 287 286 285 284 284 284 283 283 283 282 282 281 281 281 280 280 280 280 280 281 281 282 283 284 285 286 286 286 286 286 286 286 286 285 285 285 284 284 283 283 282 282 281 281 281 281 280 280 279 279 279 278 278 277 277 277 276
288 294 296 297 296 294 292 294 299 304 306 305 305 304 304 303 302 302 301 301 300 300 300 299 299 297 296 295 294 293 292 291 290 289 288 287 286 285 285 284 284 284 284 285 285 286 286 286 286 287 288 288 288 289 289 289 290 290 290 290 290 289 289 289 288 288 287 287 287 286 286 286 285 285 285 284 284 284 283 283 282 282 281 281 280 279 279 279
295 297 297 295 292 292 296 301 304 305 305 305 305 305 305 306 306 306 306 305 305 305 304 303 302 300 299 297 296 295 293 292 291 290 289 288 287 286 286 285 286 287 288 289 290 291 291 292 292 292 292 292 292 292 292 292 292 292 292 292 292 291 291 291 290 290 289 289 289 289 289 288 287 287 287 287 287 286 286 286 285 284 283 282 282 281 281 280
296 296 293 290 291 295 300 302 304 304 304 306 307 308 309 310 310 310 310 309 309 308 306 304 302 301 299 298 297 296 294 293 291 290 289 289 288 288 289 289 290 292 292 293 293 293 294 294 294 294 294 294 294 294 294 294 294 294 294 294 294 294 294 293 293 292 292 292 291 291 290 290 289 288 288 289 288 288 287 286 285 285 284 283 282 282 282 281
293 290 288 289 294 298 302 304 304 304 306 308 311 312 313 313 313 313 313 312 310 308 306 304 303 302 300 299 298 296 295 293 292 291 291 291 291 292 293 294 295 296 296 296 296 296 296 296 296 297 296 296 296 297 297 297 297 297 297 297 297 296 296 295 294 294 293 292 291 291 290 290 289 289 289 289 288 288 287 286 285 284 284 283 283 282 282 281
287 286 288 293 298 302 305 305 305 307 311 313 315 316 316 316 316 315 313 311 310 308 306 305 304 303 301 299 298 296 295 294 294 294 294 295 296 296 297 298 299 299 299 299 299 299 299 299 300 300 300 300 300 300 300 300 300 299 299 299 298 297 296 295 294 293 292 291 290 290 289 289 289 290 291 291 290 289 288 287 286 286 285 285 284 283 283 282
284 288 292 298 303 305 306 306 309 313 315 317 317 318 318 318 317 315 313 312 310 308 307 306 305 303 301 299 297 295 295 294 295 297 298 299 300 301 301 302 302 302 302 302 302 302 302 303 302 302 302 301 301 301 301 301 300 300 299 299 298 297 296 295 293 292 291 291 290 290 290 291 291 291 292 291 291 290 289 288 287 287 286 285 284 284 283 283
286 292 298 303 306 306 308 312 316 317 318 319 319 319 319 318 316 315 314 312 310 308 307 306 305 303 301 298 297 296 296 298 299 301 303 304 305 306 306 306 306 306 306 306 306 305 305 304 304 303 303 303 303 303 302 302 301 301 300 300 299 298 297 296 295 294 293 293 292 292 291 292 292 292 292 292 292 292 291 291 290 290 289 288 287 286 286 286
290 297 303 306 307 310 314 317 318 319 320 320 320 320 319 318 317 316 314 312 310 309 308 305 303 300 299 299 299 301 303 306 307 308 309 309 309 309 309 309 309 308 308 307 307 306 306 305 305 305 305 305 305 304 304 303 303 302 302 302 301 300 299 298 297 296 295 294 293 293 293 293 294 296 297 297 297 297 297 297 296 295 295 294 293 293 292 292
296 302 304 307 311 315 318 320 320 321 321 321 321 320 319 319 318 316 314 312 311 309 307 304 302 301 301 303 304 306 309 310 311 312 312 311 311 311 310 310 309 308 308 308 308 308 308 307 307 307 307 307 307 306 306 305 305 304 304 304 303 302 301 299 298 297 296 296 297 299 301 301 302 303 303 303 303 303 302 301 300 300 299 299 298 298 297 296
301 304 306 311 316 318 320 322 322 322 321 321 321 321 321 319 317 315 314 313 310 307 306 305 304 304 305 307 309 311 312 313 313 313 311 310 310 309 309 310 311 311 312 312 311 311 311 311 311 311 310 309 309 308 308 307 307 307 306 306 305 304 304 303 304 303 303 304 305 307 308 308 308 308 307 306 305 304 303 302 302 302 301 300 300 299 298 297
303 305 310 315 318 320 323 324 323 322 322 322 322 322 321 319 317 316 314 311 309 308 307 307 307 308 310 312 314 316 316 316 315 315 314 314 314 314 315 315 316 316 316 316 316 316 315 314 314 313 312 311 311 310 310 309 309 309 309 309 308 308 309 309 310 309 308 308 309 310 311 310 310 309 308 306 305 304 304 304 303 302 302 301 300 299 299 298
305 310 314 317 320 323 324 324 323 323 323 323 324 323 321 319 317 315 312 310 310 310 309 309 311 313 315 316 317 318 317 316 315 315 316 317 318 319 319 319 319 319 319 319 318 318 317 316 315 314 314 313 313 312 312 312 311 311 311 311 310 310 310 309 309 309 309 310 310 311 311 310 309 309 308 306 306 305 304 303 303 302 302 301 301 300 300 299
309 314 316 319 323 325 325 324 324 324 324 325 325 323 321 318 315 313 312 313 312 311 311 312 315 317 318 318 319 318 317 316 316 317 318 319 320 320 320 320 321 321 321 321 320 319 318 317 316 316 315 315 314 314 313 313 313 312 312 311 310 309 308 307 307 309 309 309 310 310 310 310 309 308 307 306 305 305 303 303 302 302 302 302 301 301 300 300
313 316 319 322 325 325 325 325 325 325 326 326 325 322 319 316 314 314 315 314 313 314 315 318 319 319 320 319 319 318 318 318 319 321 322 323 324 323 323 323 323 323 322 321 320 319 318 318 318 317 317 316 316 315 315 314 313 313 312 310 308 307 306 306 307 308 309 309 309 308 309 310 309 308 308 307 306 306 305 305 304 303 303 302 302 302 301 301
316 319 323 325 325 325 326 326 326 327 327 326 324 320 317 316 317 316 315 314 315 317 319 320 320 320 319 318 318 319 320 322 323 325 326 327 327 327 326 326 325 324 323 322 321 320 320 319 319 319 318 318 318 317 316 316 315 313 311 309 307 305 305 305 306 307 308 309 309 308 308 310 310 308 308 308 308 307 307 307 306 306 305 305 305 305 305 305
319 323 326 326 326 327 327 327 328 328 327 325 322 318 318 319 318 316 315 316 318 320 320 320 320 319 319 318 319 320 322 324 326 327 328 329 329 328 327 326 325 324 324 323 322 322 321 321 321 320 320 320 320 320 319 318 317 314 312 310 307 305 303 303 304 306 308 309 309 308 307 309 311 309 309 310 310 310 310 310 309 309 309 309 310 310 310 311
323 326 327 327 328 328 328 328 328 328 326 325 321 320 320 319 318 317 318 319 320 320 321 320 320 319 319 319 321 322 323 325 327 329 330 330 330 329 328 327 326 326 325 324 324 323 323 323 323 323 323 323 323 323 323 322 320 318 315 312 309 307 304 303 304 306 308 310 311 310 308 309 312 311 310 311 312 313 313 313 313 313 313 313 314 315 316 316
325 327 327 328 329 328 329 329 329 328 327 325 323 322 321 319 319 320 320 320 320 321 321 321 321 320 321 322 323 324 325 327 329 330 331 331 331 330 329 328 327 327 326 326 325 325 325 325 325 325 325 326 326 327 327 326 325 323 321 317 313 310 306 305 305 306 309 311 313 314 311 311 314 314 313 314 316 316 316 316 316 317 317 317 318 319 319 320
326 328 329 329 329 329 329 329 329 329 327 325 324 322 321 321 320 320 321 321 321 321 321 321 322 322 322 323 324 326 327 329 331 331 332 332 332 331 330 329 329 328 327 327 327 327 327 327 327 327 328 328 328 329 329 329 328 327 325 322 318 314 311 308 308 308 310 312 314 317 316 314 316 318 316 316 318 318 318 319 319 320 321 321 321 321 322 322
327 329 330 329 329 329 330 330 330 329 327 325 324 323 322 321 320 320 321 321 321 321 322 323 324 324 324 325 326 327 329 330 331 332 333 333 332 332 331 331 330 329 328 329 329 329 330 330 330 330 330 330 330 330 330 331 331 330 329 327 323 320 316 313 311 311 312 314 315 318 318 316 317 320 319 318 318 318 319 320 322 323 323 323 323 324 324 325
329 330 330 330 330 330 330 330 330 329 326 325 324 322 321 321 321 322 321 321 322 323 324 325 326 326 326 327 328 329 330 331 332 333 334 334 333 333 332 331 330 330 330 331 331 332 333 333 333 332 331 331 331 331 331 331 333 333 332 330 327 324 321 318 316 315 315 316 316 318 320 318 318 321 321 320 320 319 319 321 323 325 325 325 325 326 327 328
330 330 330 330 331 331 331 331 330 329 327 326 324 322 322 322 322 321 321 322 323 324 326 327 328 328 328 328 329 330 331 332 334 334 334 334 334 334 333 332 331 332 333 334 334 335 336 335 335 335 334 333 332 332 332 333 334 334 334 333 330 327 326 323 321 320 319 319 318 319 322 320 319 322 323 322 322 321 320 322 324 326 326 326 327 328 329 329
330 330 330 331 331 331 331 331 330 328 326 325 323 322 322 321 321 322 322 323 324 326 328 329 329 329 330 330 330 331 333 334 335 335 336 336 335 334 333 333 334 335 335 336 336 337 338 338 337 337 337 336 333 332 334 334 334 336 336 335 333 330 329 327 325 324 323 323 321 320 323 322 321 323 325 323 323 323 322 323 325 327 328 328 328 330 330 331
330 331 331 331 331 331 331 331 329 327 326 325 324 322 321 320 322 323 324 325 327 329 330 331 331 331 331 331 332 333 335 336 336 337 337 336 335 334 334 335 337 338 338 338 338 339 339 339 339 338 339 341 337 333 334 335 335 336 337 337 335 332 331 329 327 326 325 326 325 323 324 324 323 324 325 324 324 324 324 324 326 328 329 329 330 331 331 331
330 331 331 331 331 332 332 331 328 327 327 324 322 321 321 322 324 325 326 327 328 330 331 332 333 333 333 333 334 335 336 337 337 337 337 336 335 336 337 339 340 340 341 341 341 341 340 340 340 338 339 343 341 336 336 337 336 337 339 339 337 334 332 330 327 327 327 329 329 327 326 325 325 326 326 325 325 326 325 325 326 328 330 330 331 331 331 331
330 331 331 331 332 332 332 330 328 327 326 323 322 323 324 324 325 326 327 328 329 331 333 334 335 335 334 335 336 337 337 338 338 337 337 337 337 339 341 342 342 343 343 343 343 343 343 342 342 340 339 342 343 340 339 339 339 340 341 341 338 336 335 333 330 329 330 332 333 331 330 328 327 328 328 327 327 327 326 326 327 329 331 331 331 331 331 330
330 331 331 332 332 333 332 329 327 327 326 324 324 324 324 324 325 326 327 329 330 332 334 335 336 337 337 338 338 338 339 339 338 338 338 340 341 343 344 344 344 344 344 344 345 345 346 346 346 344 341 342 344 343 342 342 343 343 342 341 340 340 338 337 335 332 332 335 336 335 333 331 329 330 331 329 328 328 327 326 328 330 331 330 330 330 330 330
331 331 332 332 333 333 331 328 327 327 326 324 323 323 324 325 326 327 328 330 332 334 336 337 338 338 339 339 339 339 339 339 339 339 341 343 345 346 346 346 346 346 346 347 347 348 349 350 350 350 348 347 348 347 347 347 347 347 347 345 344 344 343 341 338 334 334 338 338 335 333 332 331 331 331 330 329 329 328 327 328 331 331 330 330 330 330 330
332 332 333 333 334 334 331 328 328 328 326 324 323 323 324 324 326 327 329 331 333 335 338 339 339 340 340 340 340 340 340 340 340 342 345 347 348 349 349 350 350 350 351 352 353 353 355 356 356 357 356 355 355 354 353 353 354 354 354 352 351 351 350 347 343 340 341 343 341 337 335 334 332 332 331 331 330 330 329 328 329 331 330 329 329 330 330 330
332 333 334 334 335 334 330 328 328 327 325 323 323 323 323 324 326 327 329 332 334 337 338 339 340 340 340 340 340 340 341 342 344 347 349 351 352 352 353 354 355 356 357 358 359 0 1 2 3 3 2 1 1 360 358 358 359 360 359 357 356 356 356 354 350 348 349 350 348 346 343 340 338 335 333 332 331 331 330 328 329 330 329 329 329 329 329 329